Location: Red Deer
(52.2681°N, 113.8112°W)
Time: 01:08:57
(UTC-06:00)

QB50P2 - Pass Details

Date: 29 May 2022
Orbit: 589 x 607 km, 97.9° (Epoch: 27 June)

Event Time Altitude Azimuth Distance (km) Brightness Sun altitude
Rises 04:18:41 0° 5° (N) 2,837 ? -7.7°
Reaches altitude 10° 04:21:10 10° 351° (N) 1,930 ? -7.5°
Maximum altitude 04:24:28 23° 299° (WNW) 1,273 ? -7.2°
Drops below altitude 10° 04:27:45 10° 247° (WSW) 1,919 ? -6.8°
Enters shadow 04:28:29 - 241° (WSW) 2,169 ? -6.8°
